Find Starlink 5819

NORAD ID: 55780 Int'l Des: 2023-028 Owner: SPXS Country: US Constellation: starlink operational
LEOCIRCULAR

Live Position

Loading 3D Globe...

About Starlink 5819

Description loading...

Upcoming Passes

Passes for default location (London). Set your location on the main map for personalized predictions.

Altitude History

Loading altitude history...

Two-Line Element Set

1 55780U 23028AR 26106.18425294 .00000927 00000-0 85482-4 0 9999
2 55780 69.9960 129.7495 0003446 265.4716 94.6050 14.98340822172152
Epoch: Apr 16, 2026 • Age: 14 hours

Current Status

Altitude 585.6 km
Velocity 7.57 km/s
Sub-Earth Point -41.76°S, 151.35°W
Launch Date Mar 3, 2023
Age 3.1 years
Type internet

Technical Details

Classification Payload
Mass 305.00 kg
Dry Mass 290.00 kg
Total Mass 305.00 kg
Length 0.20 m
Diameter 2.80 m
Span 9.00 m
Shape Box + pan
Manufacturer SPXS
Bus Type Starlink
Phase Status In Orbit
Owner/State SPXS/US

Most Searched